Temp
-16 -16 -16 -16 -16 -15 -15 -15 -15 -15 -15 -15 -16 -16 -16 -16 -15 -15 -15 -15 -15 -15 -14 -14 -14 -14 -14 -14 -14 -13 -14 -14 -14 -14 -14 -14 -13 -13 -13 -12 -12 -12 -12 -11 -11 -10 -11 -10 -11 -11 -11 -11 -11 -11
-16 -16 -17 -16 -16 -16 -16 -16 -15 -15 -15 -15 -16 -17 -16 -16 -16 -16 -16 -15 -15 -15 -15 -15 -15 -15 -15 -15 -15 -15 -15 -14 -14 -14 -14 -13 -13 -13 -13 -13 -13 -12 -11 -12 -11 -11 -10 -11 -11 -11 -11 -11 -12 -11
-17 -16 -17 -16 -16 -17 -16 -16 -16 -15 -15 -15 -16 -17 -17 -16 -16 -16 -16 -16 -16 -16 -16 -15 -15 -15 -16 -16 -15 -15 -15 -15 -15 -15 -14 -15 -13 -14 -13 -13 -13 -13 -13 -12 -12 -12 -11 -12 -12 -12 -12 -11 -11 -11
-16 -16 -17 -17 -16 -17 -17 -16 -16 -16 -15 -15 -16 -17 -17 -17 -16 -16 -16 -16 -16 -16 -16 -16 -16 -16 -16 -16 -16 -16 -16 -16 -16 -16 -15 -14 -14 -14 -14 -13 -14 -12 -13 -13 -13 -12 -12 -12 -12 -12 -12 -12 -12 -11
-17 -17 -17 -17 -17 -17 -17 -17 -16 -16 -16 -16 -16 -17 -17 -17 -17 -17 -17 -17 -16 -17 -16 -16 -16 -16 -16 -16 -16 -16 -16 -16 -16 -16 -15 -15 -15 -14 -15 -15 -14 -14 -13 -13 -13 -13 -13 -12 -13 -12 -12 -12 -12 -12
-17 -17 -17 -17 -17 -17 -17 -17 -17 -17 -16 -16 -16 -17 -17 -17 -17 -17 -17 -17 -17 -17 -17 -17 -17 -17 -17 -17 -17 -17 -17 -17 -16 -16 -15 -15 -16 -16 -16 -15 -15 -14 -14 -14 -13 -13 -13 -13 -13 -13 -12 -12 -12 -12
-17 -18 -18 -18 -18 -18 -18 -18 -18 -17 -17 -16 -17 -17 -18 -18 -18 -17 -17 -17 -17 -17 -17 -17 -17 -17 -17 -17 -17 -18 -17 -17 -17 -16 -16 -16 -16 -16 -16 -15 -14 -13 -14 -15 -14 -14 -14 -14 -13 -13 -12 -12 -12 -12
-18 -18 -18 -18 -18 -18 -19 -19 -18 -18 -17 -17 -17 -17 -18 -18 -18 -18 -18 -17 -17 -17 -17 -18 -17 -17 -17 -17 -18 -18 -18 -18 -17 -16 -17 -17 -16 -15 -15 -15 -16 -15 -15 -15 -15 -14 -14 -14 -14 -13 -13 -13 -13 -13
-18 -19 -19 -19 -19 -19 -19 -19 -19 -19 -18 -18 -18 -18 -18 -18 -18 -18 -18 -18 -18 -17 -18 -18 -18 -18 -18 -18 -18 -18 -18 -18 -18 -17 -17 -17 -17 -16 -16 -15 -15 -15 -15 -15 -15 -15 -15 -15 -14 -12 -13 -13 -14 -14
-19 -19 -19 -19 -19 -19 -19 -19 -19 -19 -19 -19 -19 -19 -18 -18 -18 -18 -18 -18 -18 -18 -18 -18 -18 -18 -18 -18 -18 -18 -18 -19 -19 -18 -17 -17 -17 -17 -16 -16 -16 -16 -16 -16 -16 -16 -15 -15 -14 -14 -14 -13 -13 -13
-20 -20 -20 -19 -19 -19 -19 -19 -19 -19 -19 -19 -18 -19 -19 -18 -18 -19 -18 -18 -18 -18 -18 -19 -18 -18 -18 -19 -18 -19 -19 -19 -19 -20 -18 -18 -18 -17 -16 -16 -16 -16 -16 -16 -16 -16 -15 -15 -15 -15 -15 -14 -14 -14
-20 -20 -20 -20 -20 -20 -19 -19 -19 -20 -19 -19 -19 -18 -19 -18 -18 -18 -18 -18 -18 -18 -19 -19 -19 -18 -18 -18 -18 -19 -19 -19 -19 -19 -19 -18 -17 -17 -17 -16 -16 -16 -15 -15 -15 -15 -15 -15 -14 -14 -14 -14 -14 -14
-22 -21 -20 -20 -20 -20 -20 -19 -20 -20 -19 -19 -19 -19 -19 -18 -18 -18 -18 -18 -19 -19 -19 -19 -19 -18 -18 -19 -19 -19 -20 -19 -19 -19 -18 -18 -18 -17 -17 -16 -16 -16 -16 -16 -15 -15 -15 -15 -15 -14 -14 -14 -14 -14
-23 -22 -21 -21 -20 -20 -20 -20 -20 -20 -19 -19 -19 -19 -19 -19 -19 -19 -19 -19 -18 -19 -19 -19 -19 -19 -19 -19 -20 -19 -19 -19 -18 -18 -19 -19 -18 -18 -17 -17 -17 -16 -16 -16 -16 -15 -15 -15 -15 -15 -14 -14 -14 -14
-24 -23 -23 -22 -21 -21 -20 -20 -20 -19 -19 -19 -19 -19 -19 -19 -19 -20 -19 -19 -19 -19 -19 -19 -19 -19 -20 -20 -20 -19 -19 -19 -18 -19 -18 -18 -18 -18 -18 -17 -17 -17 -16 -16 -16 -16 -15 -15 -15 -15 -15 -15 -14 -14
-26 -24 -23 -23 -22 -22 -21 -20 -20 -20 -19 -19 -19 -19 -19 -19 -20 -20 -20 -20 -20 -19 -19 -19 -19 -20 -20 -20 -20 -19 -19 -19 -19 -18 -18 -18 -18 -18 -18 -17 -17 -17 -17 -17 -16 -16 -16 -16 -16 -15 -15 -15 -15 -15
-26 -26 -24 -23 -23 -22 -21 -21 -21 -20 -19 -19 -19 -19 -19 -19 -19 -19 -20 -20 -20 -19 -19 -19 -19 -20 -20 -19 -19 -19 -19 -19 -18 -18 -18 -19 -19 -18 -18 -18 -18 -18 -17 -17 -17 -17 -17 -17 -16 -16 -16 -16 -16 -16
-26 -26 -26 -24 -23 -23 -23 -22 -21 -20 -19 -19 -19 -19 -19 -19 -19 -19 -20 -20 -20 -20 -20 -20 -20 -20 -20 -20 -20 -19 -19 -19 -18 -19 -19 -19 -18 -18 -18 -18 -18 -18 -17 -17 -17 -17 -17 -16 -16 -16 -16 -16 -16 -16
-26 -26 -25 -25 -24 -23 -22 -21 -21 -21 -20 -19 -19 -19 -19 -19 -19 -20 -20 -20 -20 -20 -20 -20 -20 -19 -19 -19 -19 -19 -19 -19 -19 -19 -18 -18 -18 -18 -18 -18 -18 -18 -17 -17 -17 -17 -17 -16 -16 -16 -16 -16 -16 -16
-26 -25 -25 -25 -24 -23 -22 -21 -21 -21 -20 -20 -20 -20 -20 -20 -20 -20 -20 -20 -20 -20 -20 -20 -19 -19 -19 -19 -19 -19 -19 -19 -19 -18 -18 -18 -18 -18 -18 -18 -17 -17 -17 -17 -17 -17 -16 -16 -16 -16 -16 -17 -17 -17
-26 -25 -25 -24 -24 -24 -23 -22 -22 -21 -21 -21 -21 -20 -20 -20 -20 -20 -20 -20 -20 -20 -20 -20 -19 -19 -19 -19 -19 -19 -19 -19 -19 -18 -18 -18 -18 -18 -18 -17 -17 -17 -17 -17 -17 -17 -17 -17 -16 -16 -16 -16 -16 -16
-27 -26 -25 -25 -24 -24 -24 -23 -23 -22 -22 -21 -21 -20 -20 -20 -20 -20 -20 -20 -20 -20 -20 -19 -19 -19 -19 -19 -19 -19 -19 -18 -18 -18 -18 -18 -18 -18 -18 -17 -17 -17 -17 -17 -17 -17 -17 -16 -16 -16 -16 -16 -16 -16
-26 -26 -26 -25 -24 -24 -23 -23 -23 -22 -21 -21 -21 -20 -20 -20 -20 -20 -20 -20 -20 -20 -20 -19 -19 -19 -19 -19 -19 -19 -18 -18 -18 -18 -18 -18 -18 -17 -17 -17 -17 -17 -17 -17 -17 -16 -16 -16 -16 -16 -16 -17 -17 -17
-25 -25 -25 -24 -24 -24 -23 -22 -22 -21 -21 -21 -21 -21 -21 -21 -21 -20 -20 -20 -20 -20 -19 -19 -19 -19 -19 -19 -18 -18 -18 -18 -18 -19 -18 -17 -17 -17 -17 -17 -17 -17 -16 -16 -16 -16 -16 -16 -17 -17 -17 -17 -17 -17
-25 -25 -24 -24 -23 -23 -23 -22 -22 -22 -22 -21 -21 -21 -21 -20 -20 -20 -20 -20 -20 -19 -19 -19 -19 -19 -18 -18 -18 -18 -18 -18 -17 -17 -17 -17 -17 -17 -16 -16 -16 -16 -16 -16 -16 -17 -16 -16 -16 -16 -16 -16 -17 -17
-24 -24 -24 -23 -23 -23 -23 -22 -22 -22 -21 -21 -20 -20 -20 -20 -20 -20 -20 -20 -19 -19 -19 -19 -19 -18 -18 -18 -18 -18 -17 -17 -17 -17 -17 -16 -16 -16 -17 -17 -17 -16 -16 -16 -16 -16 -16 -16 -16 -16 -16 -16 -17 -17
-23 -23 -23 -23 -22 -22 -22 -21 -21 -21 -20 -20 -20 -20 -20 -20 -19 -19 -19 -19 -19 -19 -19 -19 -19 -19 -18 -17 -17 -17 -17 -17 -17 -17 -17 -17 -17 -17 -17 -17 -17 -16 -16 -16 -16 -16 -16 -16 -16 -16 -16 -17 -17 -17
-22 -22 -22 -22 -21 -21 -21 -21 -21 -20 -20 -20 -20 -19 -19 -19 -19 -19 -19 -19 -19 -19 -18 -18 -18 -17 -17 -17 -17 -17 -17 -17 -17 -17 -17 -17 -17 -17 -16 -16 -16 -16 -16 -16 -16 -16 -16 -16 -17 -17 -17 -17 -17 -18
-21 -21 -21 -21 -21 -20 -20 -20 -20 -20 -19 -19 -19 -19 -19 -19 -19 -18 -19 -19 -19 -18 -18 -17 -17 -17 -17 -17 -17 -17 -17 -17 -17 -17 -17 -17 -17 -16 -16 -16 -16 -16 -16 -16 -16 -16 -17 -17 -17 -17 -17 -17 -18 -18
-20 -20 -20 -20 -20 -20 -19 -19 -19 -19 -19 -19 -18 -18 -18 -18 -18 -18 -18 -18 -18 -17 -18 -18 -17 -17 -17 -17 -17 -17 -17 -17 -17 -17 -17 -16 -16 -16 -16 -16 -16 -16 -16 -17 -17 -17 -17 -17 -17 -17 -18 -18 -18 -18
-19 -19 -19 -19 -19 -19 -19 -19 -19 -18 -18 -18 -18 -18 -17 -17 -18 -18 -18 -17 -17 -17 -18 -18 -18 -18 -18 -18 -17 -17 -17 -17 -17 -17 -17 -17 -17 -16 -17 -17 -17 -17 -17 -17 -17 -17 -17 -18 -18 -18 -18 -18 -19 -19
-19 -19 -19 -18 -18 -18 -18 -18 -18 -18 -18 -18 -17 -17 -17 -17 -17 -17 -18 -18 -18 -18 -18 -18 -18 -18 -18 -18 -18 -18 -18 -18 -17 -17 -17 -17 -17 -17 -17 -17 -17 -17 -17 -17 -17 -18 -18 -18 -19 -19 -19 -19 -20 -20
-18 -18 -18 -18 -18 -18 -18 -18 -18 -18 -18 -17 -18 -17 -18 -18 -18 -18 -18 -18 -18 -18 -18 -18 -18 -18 -18 -18 -18 -18 -18 -18 -18 -18 -18 -18 -17 -17 -17 -17 -17 -18 -18 -18 -18 -18 -19 -19 -19 -20 -20 -20 -20 -20
Height
5665 5669 5673 5677 5684 5689 5695 5700 5707 5712 5716 5719 5722 5726 5728 5731 5734 5736 5738 5740 5743 5744 5746 5747 5749 5752 5755 5758 5761 5761 5772 5777 5783 5787 5796 5803 5806 5814 5816 5814 5819 5825 5831 5839 5843 5839 5841 5835 5838 5843 5848 5853 5853 5854
5654 5658 5663 5669 5675 5681 5687 5693 5698 5704 5709 5712 5716 5720 5722 5725 5728 5731 5734 5736 5738 5740 5743 5743 5744 5746 5748 5752 5756 5759 5763 5767 5773 5781 5784 5787 5796 5797 5806 5811 5810 5818 5820 5823 5823 5824 5805 5826 5831 5837 5843 5847 5848 5851
5647 5650 5655 5661 5667 5673 5679 5686 5692 5697 5703 5705 5709 5714 5717 5719 5723 5727 5729 5731 5734 5736 5737 5739 5740 5742 5743 5745 5750 5753 5755 5760 5767 5772 5776 5784 5789 5789 5796 5802 5803 5808 5814 5818 5818 5816 5819 5820 5824 5832 5836 5840 5841 5844
5639 5643 5648 5653 5659 5665 5672 5679 5685 5691 5695 5699 5703 5707 5711 5715 5719 5722 5725 5727 5729 5731 5732 5734 5735 5736 5738 5740 5743 5747 5750 5754 5759 5763 5766 5772 5777 5771 5781 5782 5794 5794 5804 5806 5810 5811 5814 5818 5822 5826 5829 5832 5834 5837
5631 5635 5641 5646 5652 5658 5665 5672 5679 5683 5688 5693 5697 5701 5705 5709 5714 5717 5720 5722 5724 5728 5728 5729 5730 5731 5732 5735 5738 5740 5743 5747 5751 5754 5757 5760 5764 5769 5774 5781 5789 5791 5791 5797 5798 5800 5807 5808 5816 5818 5820 5823 5825 5827
5624 5627 5634 5639 5645 5651 5658 5665 5672 5677 5682 5686 5691 5695 5699 5704 5709 5712 5715 5718 5720 5721 5723 5725 5726 5726 5728 5730 5732 5734 5736 5739 5743 5746 5748 5752 5756 5761 5767 5773 5772 5775 5780 5784 5787 5794 5796 5802 5806 5808 5812 5813 5817 5817
5617 5621 5626 5632 5638 5643 5649 5658 5665 5671 5676 5680 5685 5690 5694 5699 5703 5707 5711 5713 5715 5717 5719 5720 5721 5722 5723 5724 5726 5728 5730 5732 5735 5738 5739 5741 5745 5751 5756 5762 5770 5769 5772 5778 5782 5786 5788 5792 5795 5797 5803 5806 5807 5807
5610 5614 5619 5625 5631 5637 5644 5650 5659 5666 5671 5675 5680 5684 5689 5693 5697 5701 5705 5708 5710 5712 5714 5716 5717 5719 5720 5720 5721 5722 5724 5727 5729 5730 5733 5735 5737 5742 5747 5751 5761 5760 5758 5767 5774 5777 5779 5784 5787 5788 5790 5792 5792 5791
5600 5606 5612 5619 5626 5634 5641 5646 5653 5661 5667 5672 5676 5680 5684 5688 5692 5696 5699 5703 5705 5709 5710 5712 5714 5714 5716 5716 5716 5717 5718 5721 5722 5725 5726 5729 5731 5734 5738 5744 5749 5750 5751 5761 5766 5768 5770 5773 5779 5772 5779 5782 5783 5783
5587 5596 5604 5612 5620 5627 5634 5641 5648 5655 5662 5667 5672 5676 5681 5682 5686 5691 5695 5698 5700 5702 5705 5707 5709 5710 5712 5711 5711 5712 5712 5715 5716 5721 5720 5724 5727 5728 5733 5737 5742 5743 5747 5751 5754 5756 5758 5760 5764 5767 5769 5770 5770 5774
5575 5584 5594 5603 5612 5621 5628 5636 5642 5649 5656 5662 5668 5673 5677 5679 5682 5686 5690 5693 5695 5698 5700 5702 5705 5706 5707 5708 5707 5705 5707 5708 5711 5716 5718 5720 5722 5721 5728 5730 5733 5736 5738 5741 5745 5749 5752 5754 5757 5759 5760 5762 5762 5763
5563 5572 5582 5593 5603 5613 5621 5630 5637 5644 5652 5658 5664 5668 5673 5675 5679 5682 5685 5688 5690 5692 5695 5697 5700 5701 5702 5702 5703 5703 5704 5704 5707 5709 5712 5714 5714 5719 5721 5724 5726 5728 5731 5734 5738 5741 5744 5746 5748 5751 5753 5754 5756 5756
5550 5559 5571 5582 5593 5604 5613 5623 5632 5639 5647 5654 5659 5665 5668 5671 5673 5677 5680 5684 5686 5688 5691 5693 5696 5697 5697 5697 5696 5698 5700 5702 5702 5703 5706 5707 5709 5712 5715 5717 5720 5722 5725 5728 5730 5733 5735 5738 5740 5742 5744 5745 5746 5747
5543 5551 5561 5573 5585 5596 5607 5617 5626 5635 5643 5650 5656 5660 5663 5666 5669 5673 5675 5678 5681 5684 5687 5690 5692 5693 5692 5692 5693 5695 5697 5698 5699 5700 5701 5701 5703 5707 5709 5712 5714 5717 5719 5722 5724 5726 5728 5730 5732 5734 5735 5736 5738 5738
5536 5548 5555 5566 5577 5589 5600 5612 5622 5631 5639 5646 5652 5656 5660 5662 5665 5667 5671 5675 5678 5681 5684 5687 5688 5688 5689 5690 5692 5693 5695 5696 5696 5697 5696 5697 5699 5701 5703 5706 5709 5711 5713 5715 5718 5720 5722 5723 5724 5726 5727 5728 5729 5730
5532 5542 5552 5564 5573 5584 5594 5605 5616 5627 5635 5642 5648 5653 5657 5659 5661 5664 5668 5671 5675 5678 5681 5683 5684 5685 5687 5689 5690 5691 5693 5692 5693 5693 5693 5694 5695 5697 5700 5702 5704 5706 5708 5710 5712 5713 5715 5716 5717 5718 5719 5720 5720 5721
5532 5542 5552 5562 5572 5581 5591 5602 5613 5623 5632 5639 5645 5649 5653 5657 5659 5661 5665 5670 5673 5676 5678 5679 5682 5684 5686 5687 5689 5690 5689 5690 5690 5690 5689 5692 5693 5695 5697 5698 5700 5701 5703 5705 5706 5707 5709 5709 5710 5711 5712 5713 5712 5712
5537 5544 5552 5562 5573 5581 5590 5600 5611 5621 5629 5636 5642 5647 5650 5654 5657 5660 5664 5668 5671 5673 5675 5678 5681 5683 5684 5685 5687 5688 5687 5687 5688 5688 5689 5691 5692 5693 5694 5695 5696 5697 5698 5700 5701 5701 5702 5704 5704 5705 5705 5705 5704 5703
5539 5548 5555 5564 5574 5583 5592 5600 5610 5619 5627 5633 5639 5644 5648 5652 5656 5659 5663 5666 5669 5672 5674 5677 5679 5681 5683 5683 5684 5685 5685 5685 5686 5688 5688 5689 5690 5691 5692 5693 5694 5694 5695 5695 5695 5696 5696 5697 5697 5698 5697 5697 5696 5695
5544 5551 5559 5567 5575 5584 5594 5604 5610 5618 5625 5630 5636 5641 5647 5651 5654 5658 5662 5665 5667 5669 5672 5675 5677 5680 5681 5681 5682 5683 5684 5684 5685 5685 5686 5686 5687 5688 5689 5689 5690 5690 5690 5690 5690 5690 5691 5691 5691 5691 5691 5691 5689 5688
5548 5555 5561 5569 5579 5587 5595 5603 5611 5618 5625 5631 5637 5642 5647 5650 5654 5657 5660 5663 5665 5668 5671 5674 5676 5678 5679 5680 5681 5682 5682 5682 5682 5683 5683 5684 5684 5685 5685 5686 5686 5685 5685 5685 5686 5686 5687 5687 5687 5687 5687 5686 5685 5684
5554 5560 5566 5574 5583 5591 5599 5606 5614 5621 5628 5634 5639 5643 5646 5649 5652 5655 5658 5661 5664 5667 5670 5673 5675 5676 5677 5678 5679 5679 5680 5679 5680 5680 5680 5681 5681 5681 5681 5682 5682 5682 5683 5683 5684 5684 5685 5685 5685 5685 5685 5684 5683 5682
5561 5567 5575 5583 5589 5596 5603 5610 5617 5624 5630 5634 5640 5644 5647 5650 5652 5654 5657 5659 5663 5667 5669 5671 5672 5674 5675 5676 5676 5677 5677 5677 5677 5677 5677 5676 5676 5676 5678 5679 5680 5681 5682 5683 5683 5684 5684 5684 5684 5684 5684 5683 5681 5680
5569 5575 5582 5590 5597 5602 5607 5613 5620 5626 5630 5636 5640 5644 5647 5650 5652 5655 5657 5660 5663 5665 5667 5669 5670 5671 5673 5673 5673 5674 5674 5674 5674 5674 5673 5674 5674 5676 5677 5679 5680 5681 5682 5683 5683 5684 5684 5683 5683 5682 5681 5679 5678 5676
5579 5585 5591 5596 5601 5606 5611 5617 5622 5627 5632 5636 5640 5643 5646 5649 5652 5655 5658 5660 5662 5664 5666 5667 5668 5669 5670 5671 5672 5672 5672 5672 5673 5674 5674 5674 5675 5677 5679 5680 5681 5682 5683 5683 5683 5682 5682 5681 5680 5679 5678 5677 5676 5674
5588 5593 5597 5602 5607 5611 5615 5621 5625 5629 5633 5637 5641 5644 5647 5650 5653 5655 5657 5659 5661 5662 5664 5665 5666 5667 5668 5669 5670 5671 5671 5672 5675 5676 5677 5678 5679 5680 5681 5682 5682 5682 5682 5682 5681 5681 5680 5679 5678 5677 5676 5675 5673 5672
5598 5601 5605 5609 5613 5617 5622 5626 5630 5633 5636 5640 5643 5645 5648 5651 5653 5656 5657 5659 5660 5661 5662 5664 5665 5666 5667 5668 5670 5671 5673 5674 5676 5678 5679 5680 5681 5681 5682 5681 5681 5681 5681 5681 5680 5679 5679 5678 5677 5675 5674 5673 5671 5670
5608 5611 5614 5617 5620 5624 5627 5630 5633 5636 5639 5642 5645 5647 5650 5652 5654 5656 5657 5658 5659 5661 5661 5663 5664 5666 5668 5670 5671 5672 5674 5675 5677 5678 5679 5680 5680 5681 5681 5681 5680 5680 5680 5679 5679 5678 5678 5676 5675 5674 5672 5670 5669 5667
5618 5620 5622 5625 5627 5630 5633 5636 5638 5641 5644 5646 5648 5649 5651 5653 5654 5656 5658 5659 5659 5661 5663 5665 5667 5669 5670 5671 5672 5674 5675 5676 5678 5678 5680 5680 5680 5680 5680 5680 5679 5679 5679 5678 5678 5677 5676 5674 5673 5671 5669 5667 5665 5663
5626 5628 5630 5632 5634 5637 5639 5641 5643 5644 5646 5648 5649 5651 5653 5654 5656 5658 5659 5660 5662 5664 5666 5667 5669 5670 5671 5673 5674 5675 5676 5678 5679 5679 5679 5679 5679 5679 5678 5678 5678 5678 5677 5676 5675 5674 5672 5671 5669 5667 5665 5663 5661 5658
5634 5635 5637 5638 5640 5642 5644 5645 5647 5649 5649 5650 5651 5653 5654 5656 5658 5660 5661 5663 5665 5666 5668 5669 5671 5673 5674 5675 5675 5677 5678 5678 5677 5677 5677 5677 5676 5676 5676 5675 5675 5674 5673 5672 5671 5669 5668 5666 5664 5662 5659 5657 5654 5651
5641 5642 5643 5645 5647 5648 5650 5651 5652 5653 5654 5656 5657 5658 5659 5660 5662 5663 5664 5665 5667 5668 5670 5671 5674 5674 5675 5676 5676 5676 5677 5676 5676 5675 5675 5675 5674 5674 5673 5672 5671 5670 5669 5667 5666 5664 5662 5660 5658 5656 5653 5651 5648 5645
5649 5650 5651 5652 5653 5655 5656 5658 5659 5660 5661 5662 5663 5663 5664 5665 5666 5667 5668 5668 5669 5670 5671 5672 5673 5674 5675 5675 5675 5675 5675 5674 5674 5673 5673 5672 5671 5670 5669 5668 5666 5665 5664 5662 5660 5659 5657 5655 5652 5650 5647 5644 5642 5639
Wind_Speed
35 36 31 37 35 35 33 33 34 30 26 25 25 28 26 22 19 19 20 18 17 16 17 21 25 29 32 34 35 37 32 33 32 37 28 23 22 26 27 31 30 32 27 26 27 33 40 48 25 24 30 33 35 33
27 38 30 38 35 33 32 33 33 29 27 26 26 29 27 22 18 18 20 18 17 15 15 17 21 26 29 30 31 31 33 37 38 34 40 37 33 32 36 32 32 33 33 38 37 45 30 51 24 31 27 26 25 26
29 37 31 33 35 32 33 32 30 28 27 25 26 30 28 24 19 17 18 20 18 15 14 15 15 19 25 28 29 31 34 35 33 35 36 34 31 35 32 28 34 42 39 39 43 48 41 33 28 22 28 30 31 32
28 37 29 27 34 35 36 36 31 28 25 25 26 30 29 26 22 20 17 18 19 17 15 13 14 16 19 24 27 29 30 30 31 33 38 34 55 30 33 30 29 25 48 46 47 48 35 40 32 34 36 35 36 37
33 35 30 29 34 37 37 35 34 28 26 24 25 28 31 27 23 20 18 18 19 18 15 13 13 14 16 20 27 28 27 28 29 29 32 32 44 49 46 37 26 35 37 48 51 52 49 48 41 41 41 40 41 42
33 32 31 34 35 37 39 37 32 29 26 23 25 27 31 29 24 21 20 18 18 18 16 16 14 14 15 18 21 27 26 27 27 27 31 44 53 56 51 36 46 43 40 52 54 50 51 47 45 45 45 45 45 47
35 30 30 33 35 39 40 36 32 28 25 25 24 25 29 30 27 24 22 19 18 18 17 14 15 15 14 16 19 23 27 27 27 28 30 36 52 55 51 51 38 27 53 44 43 43 44 44 47 50 50 49 49 50
34 31 31 34 36 41 39 35 32 27 25 23 23 22 25 30 28 25 23 21 18 18 16 15 16 14 13 16 20 21 25 26 26 29 29 29 23 36 49 51 49 47 44 47 41 40 40 37 40 44 45 46 45 42
36 33 34 35 34 32 37 36 35 30 26 22 18 15 19 25 27 25 23 21 19 18 17 16 15 17 12 15 19 19 20 24 29 27 30 30 31 29 28 37 43 43 41 34 41 42 42 42 34 31 42 41 42 44
43 40 41 40 37 37 35 41 39 36 31 25 19 14 10 16 24 25 23 20 18 18 18 17 16 16 13 17 17 19 19 21 25 26 31 27 27 34 28 24 26 32 38 39 30 31 32 35 44 48 40 42 43 42
47 49 45 43 42 39 36 34 40 36 29 25 20 16 13 10 17 24 23 20 18 17 17 18 15 15 13 16 15 14 20 17 18 21 27 26 26 34 27 28 28 28 28 29 28 29 29 28 29 30 34 33 34 34
52 50 49 47 43 39 37 37 35 33 28 24 21 15 13 12 15 20 23 21 17 19 17 17 15 15 15 16 16 22 20 19 20 18 22 25 29 25 24 24 25 25 27 28 28 29 29 30 29 30 31 33 33 34
39 53 54 52 50 46 40 40 34 30 30 24 18 15 13 14 17 20 20 17 18 18 18 16 15 14 15 15 16 15 17 13 16 20 19 25 25 24 24 23 24 24 24 25 26 27 28 28 29 29 30 32 33 34
40 43 45 51 51 50 45 41 36 32 31 26 19 17 14 13 17 19 18 20 18 19 18 15 15 14 15 14 14 12 14 13 15 17 18 21 19 20 22 22 22 22 23 23 24 24 26 27 28 29 30 31 32 33
38 44 38 42 46 49 51 47 42 37 31 26 21 17 13 11 17 19 18 17 19 17 15 14 14 12 10 11 11 12 11 11 11 15 15 14 16 19 19 19 20 20 21 22 23 24 25 26 27 29 30 31 32 33
33 44 45 35 37 48 45 44 41 38 33 28 22 18 13 14 18 19 19 19 17 16 14 13 11 10 10 11 12 13 13 13 13 14 14 12 12 14 15 16 16 16 17 18 20 22 24 25 26 27 29 30 30 31
30 28 39 44 32 37 43 43 38 37 34 28 23 19 16 13 21 21 20 18 16 16 14 12 11 12 10 11 10 12 15 13 13 8 9 9 10 10 11 13 14 14 16 16 16 16 18 19 20 21 21 22 24 25
32 25 25 28 29 30 37 40 39 37 34 28 23 19 16 14 17 19 19 19 19 17 15 13 12 12 11 11 11 12 11 12 12 6 5 7 10 10 11 10 11 13 14 15 15 16 16 17 18 19 21 23 24 26
32 29 32 37 34 33 34 38 37 36 32 29 25 20 18 18 17 17 18 19 17 15 16 15 14 13 11 11 12 13 13 10 6 6 7 7 9 9 10 13 13 14 16 16 18 18 19 20 21 21 21 23 22 23
36 32 40 32 41 38 39 36 38 38 36 31 28 25 20 15 19 20 18 19 17 19 19 17 16 13 12 12 12 11 11 6 8 8 8 7 9 10 11 13 14 16 18 18 19 19 19 19 18 17 17 16 17 18
34 36 38 37 40 40 39 41 35 31 29 25 22 22 16 18 19 19 18 18 18 21 20 17 15 13 12 12 12 12 11 10 10 9 9 10 12 10 11 12 13 12 11 9 10 9 8 7 7 7 9 10 10 10
25 28 36 34 34 32 34 34 32 30 25 22 20 18 19 19 18 18 18 16 21 22 19 16 14 12 13 13 13 12 11 12 11 11 11 11 12 15 14 7 9 9 5 4 5 5 3 2 2 1 3 4 5 6
29 25 22 26 25 29 32 31 32 28 25 24 21 20 18 17 17 15 16 17 22 19 16 16 15 14 13 13 13 13 12 11 11 11 12 16 14 4 3 3 4 4 3 4 4 4 3 2 1 2 5 7 8 8
30 28 28 27 27 27 31 32 32 29 25 27 25 21 20 17 16 15 15 17 18 17 16 14 13 13 12 13 12 11 10 10 13 14 6 1 5 8 6 8 8 8 7 6 5 3 2 3 4 6 7 8 8 8
32 36 35 32 32 28 27 31 29 28 26 25 25 18 18 18 15 17 15 14 15 14 14 13 12 12 12 11 10 10 11 9 6 11 11 14 14 15 13 11 8 6 4 3 3 5 5 5 6 7 8 8 8 8
34 32 29 32 29 28 29 30 23 21 18 20 17 18 18 16 15 15 15 14 13 12 11 11 11 11 10 9 9 8 3 15 15 12 12 12 11 10 7 5 3 3 4 3 3 4 5 6 7 9 10 10 9 10
29 29 27 26 26 26 25 22 21 20 20 22 18 17 16 15 14 14 13 12 11 10 9 9 10 10 8 9 10 10 11 10 15 12 11 9 7 5 3 2 1 1 1 2 3 5 6 7 8 9 10 10 11 12
25 25 26 25 25 24 23 23 23 23 20 17 16 15 14 13 12 11 10 9 9 11 10 8 11 14 13 11 11 11 8 5 4 9 11 7 4 2 2 1 1 1 2 4 5 5 6 7 8 10 11 12 13 15
27 26 26 24 23 23 23 21 20 18 16 14 13 12 11 11 11 10 10 8 4 10 16 19 18 14 9 9 11 10 7 6 7 8 6 4 5 5 4 3 3 4 5 6 8 9 10 11 12 13 14 15 17 18
24 24 23 22 21 20 18 17 15 14 12 11 11 11 11 11 12 10 9 11 15 17 15 13 13 11 10 10 11 10 9 7 6 6 6 7 7 7 6 6 7 7 8 9 10 12 13 14 15 17 17 19 20 21
21 20 19 19 18 17 16 15 14 12 10 9 7 8 10 12 12 10 12 16 14 13 14 13 14 13 13 12 10 7 5 5 4 5 5 6 7 8 9 10 11 12 13 14 15 16 17 18 20 20 21 22 23 23
21 21 21 20 19 18 17 16 14 14 15 16 15 16 16 17 16 15 13 13 15 16 15 14 13 11 8 5 3 3 4 4 5 7 8 9 10 10 11 11 12 14 15 17 18 19 20 22 22 23 24 24 24 24
23 22 22 21 20 18 16 14 15 14 12 10 9 8 10 13 13 11 11 12 14 15 14 12 11 10 10 9 8 8 8 8 9 10 11 11 12 12 14 14 15 16 17 18 20 22 22 23 25 25 23 22 23 23
Wind_Direction
235 223 219 218 224 227 224 226 225 229 234 234 236 234 231 228 229 227 220 217 219 224 222 225 225 228 230 227 224 230 226 228 225 224 218 215 214 219 218 221 202 229 224 217 224 224 232 239 231 204 218 227 234 249
241 221 216 214 224 222 218 218 222 226 230 236 237 230 225 222 225 230 224 219 218 222 223 223 223 223 227 228 229 229 228 231 227 225 221 206 199 218 200 227 222 202 203 205 208 225 226 225 239 233 230 246 252 254
234 212 203 205 213 214 219 219 218 221 231 233 234 229 224 220 220 226 228 222 222 225 228 228 227 226 226 229 231 230 230 234 233 230 233 230 208 209 210 205 217 220 213 212 226 212 233 240 248 220 228 238 245 252
224 214 213 211 215 213 216 218 220 221 226 233 230 224 222 221 220 224 229 229 227 231 235 234 235 232 230 231 236 236 234 233 236 235 235 240 218 207 198 206 205 213 217 220 223 238 227 238 235 236 241 245 250 254
234 223 208 211 211 213 214 217 215 218 225 232 231 224 221 219 219 225 225 229 230 231 238 240 244 244 239 235 236 239 236 234 233 233 239 239 234 218 212 206 214 227 225 224 227 230 229 234 236 242 245 249 255 258
228 209 208 210 209 211 207 209 211 214 218 220 224 220 219 220 218 223 224 228 229 233 238 244 246 250 251 245 242 237 239 237 233 229 233 225 223 221 214 207 216 218 229 226 228 233 241 241 239 241 245 250 254 259
218 212 215 211 210 208 197 200 204 206 208 210 209 215 219 220 219 221 221 226 229 231 234 242 250 252 256 257 250 244 239 238 235 233 238 227 206 216 219 213 205 223 233 233 234 238 243 244 245 249 251 255 259 263
216 213 215 214 208 202 190 189 190 193 195 194 201 209 218 221 219 218 222 224 225 228 231 236 248 252 263 264 258 250 240 235 234 232 237 239 231 211 218 230 227 231 235 231 235 234 239 241 243 247 250 251 254 254
215 205 200 183 182 192 197 187 181 177 174 170 173 188 211 218 218 219 220 222 226 227 227 229 238 252 262 268 264 257 248 234 233 233 238 235 241 218 219 211 219 232 253 245 238 240 242 243 243 253 245 248 250 252
196 200 200 198 200 194 192 200 187 185 186 184 183 188 195 213 217 219 219 222 227 228 225 227 234 249 261 270 268 256 255 234 235 227 236 236 240 243 246 237 233 235 235 234 226 238 239 237 237 240 246 249 252 252
199 195 199 200 200 197 194 196 190 186 189 192 196 187 206 217 221 218 221 224 229 228 226 227 232 246 255 258 271 250 253 242 242 236 227 231 235 241 242 243 241 239 235 232 231 236 240 241 243 239 242 247 252 260
207 205 204 203 203 203 203 196 190 184 183 185 191 199 215 233 232 220 220 223 224 226 224 226 231 244 259 264 252 240 244 232 238 227 236 227 234 238 237 237 239 239 239 240 240 240 242 244 245 244 246 249 253 257
199 202 205 204 203 203 204 197 194 193 192 194 201 215 235 247 236 220 216 220 224 220 222 226 234 253 265 264 255 230 230 241 239 237 231 229 234 234 235 235 236 237 237 238 240 242 243 245 246 247 249 251 254 258
199 191 199 203 204 206 205 202 203 200 202 208 217 223 238 259 228 212 206 216 219 218 221 226 243 258 266 252 236 231 228 235 228 246 235 238 237 235 235 236 236 236 236 237 238 240 243 246 248 249 251 254 257 261
196 179 171 186 198 206 210 209 206 210 212 216 218 219 240 258 214 204 205 208 211 215 219 231 247 251 245 233 222 214 214 226 234 247 250 245 233 230 229 233 235 236 236 237 237 239 242 245 248 251 254 257 260 263
185 195 179 163 183 192 199 203 205 204 209 211 215 217 237 235 201 194 199 204 205 208 216 233 237 222 220 217 215 211 217 236 245 252 247 240 233 232 231 233 236 238 239 241 241 241 243 246 249 252 255 259 261 263
169 179 194 184 171 180 193 199 196 200 205 211 208 211 230 227 197 199 199 201 200 208 220 214 203 204 209 214 220 228 234 246 248 231 216 230 236 238 237 236 233 233 235 237 236 234 234 236 240 245 252 257 260 263
170 163 168 189 182 171 177 185 194 199 200 199 206 211 220 213 206 203 198 196 199 210 211 203 203 201 199 218 220 232 234 243 245 202 206 225 229 238 236 234 236 239 238 239 245 248 251 256 257 260 265 268 271 274
168 162 160 161 164 171 175 175 176 180 185 195 202 209 210 205 199 194 196 201 210 214 197 194 194 207 221 230 229 230 233 235 227 232 231 235 236 240 240 240 244 245 247 252 259 265 264 263 267 272 274 276 276 276
152 159 164 163 164 167 172 179 178 186 189 191 193 187 186 188 194 196 200 201 213 209 198 197 202 216 225 227 231 236 246 232 239 244 247 252 250 237 239 244 253 261 263 265 265 266 266 264 266 265 269 277 282 283
159 168 172 162 171 173 170 171 180 181 180 176 174 174 175 190 195 202 206 210 211 202 200 206 210 220 229 227 227 229 236 250 258 253 252 255 257 253 252 252 268 263 259 246 245 245 248 249 267 282 290 298 303 303
161 173 183 156 149 161 171 173 173 172 164 162 163 169 183 188 195 201 210 217 201 200 205 213 221 228 229 228 234 238 249 256 252 253 254 252 250 248 248 228 230 222 224 225 207 215 247 253 248 300 337 338 333 325
133 139 152 161 144 153 161 165 166 164 160 162 161 170 188 191 195 207 211 207 199 201 215 217 224 225 221 227 235 248 250 247 254 264 260 251 255 268 252 223 165 175 176 161 168 170 172 167 179 300 310 312 314 315
138 140 141 146 150 150 148 155 158 161 161 165 169 176 187 195 198 201 192 190 197 211 216 215 211 217 225 237 244 238 247 255 252 264 273 220 206 204 197 164 153 148 142 148 152 168 220 274 296 306 313 318 318 318
138 141 140 142 152 147 154 154 154 158 162 174 179 180 182 179 183 185 189 191 201 203 201 207 217 229 232 225 236 248 236 238 163 135 120 123 129 133 137 139 144 154 172 209 239 261 273 287 300 306 309 315 320 324
135 134 136 141 143 148 153 154 155 158 158 161 168 167 171 174 173 180 189 193 198 203 210 214 211 217 225 228 224 220 170 157 151 139 133 129 128 131 136 154 179 210 245 260 279 294 304 309 312 312 311 311 314 319
130 132 134 136 135 136 141 144 148 154 156 154 156 163 167 171 174 180 187 196 201 202 207 209 210 206 179 160 160 162 168 164 166 163 157 155 153 157 184 246 264 248 253 304 314 316 319 324 325 324 324 319 316 316
122 125 127 129 130 132 136 139 142 145 148 150 155 159 162 170 176 180 182 182 191 207 203 178 155 142 144 154 163 168 164 157 201 187 181 180 196 233 270 236 214 289 318 316 309 308 317 321 323 320 319 316 314 310
117 119 121 122 124 127 131 135 138 141 145 150 155 160 163 162 163 164 173 193 168 131 135 145 154 155 156 157 153 154 164 176 187 180 192 217 247 256 242 232 247 267 287 298 306 310 310 310 311 313 313 311 310 310
113 116 117 120 122 124 128 131 133 136 142 149 153 160 165 163 160 159 144 142 149 152 150 150 158 164 164 160 168 169 167 174 190 215 237 243 241 244 245 257 270 281 288 293 298 302 304 303 301 302 304 306 307 307
110 112 113 115 116 119 123 124 126 131 136 131 133 147 161 167 164 155 144 140 152 164 170 165 159 153 155 158 164 163 189 214 231 256 274 273 267 266 266 269 275 280 284 288 292 293 294 296 300 304 306 306 307 309
105 106 108 109 110 111 112 110 106 103 111 116 111 112 113 123 129 138 147 158 160 149 148 149 155 157 157 170 194 228 252 275 287 285 283 280 275 273 272 277 284 288 290 291 292 295 297 299 301 302 303 304 307 310
104 105 107 108 108 111 106 98 99 107 113 103 114 125 135 146 155 164 172 184 176 174 177 179 186 193 202 211 225 240 252 258 262 265 266 271 275 279 281 285 288 291 294 295 295 295 297 300 303 305 308 310 311 311